DW9584 Weather Reports


Display with metric or nautical units.
time (UTC)temp
F
wind
direction
speed
MPH
gust
MPH
rain 1hr
in
rain 24hr
in
rain mn
in
humidity
%
barometer
mb
20260902113019 70 297 0.0 0.0 0.00 0.64 0.00 96 1019.4
20260902111515 70 297 0.0 0.0 0.00 0.64 0.00 96 1019.3
20260902110039 70 297 0.0 2.0 0.00 0.64 0.00 96 1019.3
20260902104547 70 297 0.0 2.0 0.00 0.64 0.00 96 1019.2
20260902103032 70 297 0.0 2.0 0.00 0.64 0.00 96 1018.8
20260902101508 70 281 0.0 2.0 0.00 0.64 0.00 96 1018.9
20260902100005 70 340 0.0 1.0 0.00 0.64 0.00 96 1018.8
20260902094504 70 340 0.0 2.0 0.00 0.64 0.00 96 1018.8
20260902093003 70 1 0.0 2.0 0.00 0.64 0.00 96 1018.5
20260902091504 70 1 0.0 0.0 0.00 0.64 0.00 96 1018.4
20260902090020 70 1 0.0 2.0 0.00 0.64 0.00 96 1018.3
20260902084516 71 345 0.0 2.0 0.00 0.64 0.00 96 1018.2
20260902083009 71 345 0.0 0.0 0.00 0.64 0.00 96 1018.1
20260902081511 71 345 0.0 0.0 0.00 0.64 0.00 96 1017.9
20260902080013 71 345 0.0 2.0 0.00 0.64 0.00 96 1018.0
20260902074506 72 345 0.0 0.0 0.00 0.64 0.00 96 1017.9
20260902073004 72 345 0.0 2.0 0.00 0.64 0.00 96 1017.5
20260902071503 72 345 0.0 2.0 0.00 0.64 0.00 96 1017.3
20260902070026 73 345 0.0 0.0 0.00 0.64 0.00 96 1017.2
20260902064520 73 345 0.0 0.0 0.00 0.64 0.00 96 1017.3
20260902063014 72 345 0.0 0.0 0.00 0.64 0.00 96 1017.0
20260902061511 72 345 0.0 0.0 0.00 0.64 0.00 96 1016.8
20260902060010 72 345 0.0 0.0 0.00 0.64 0.00 96 1016.7
20260902054506 73 345 0.0 0.0 0.00 0.64 0.00 96 1017.1
20260902053006 73 345 0.0 0.0 0.00 0.64 0.00 96 1017.3
20260902051528 73 345 0.0 0.0 0.00 0.64 0.00 96 1017.4
20260902050024 73 345 0.0 0.0 0.00 0.64 0.00 96 1017.4
20260902044537 73 345 0.0 0.0 0.00 0.64 0.00 96 1017.3
20260902043020 73 345 0.0 0.0 0.00 0.64 0.00 96 1017.3
20260902041516 73 345 0.0 2.0 0.00 0.64 0.00 96 1017.4
20260902040012 73 345 0.0 0.0 0.00 0.64 0.00 95 1017.1
20260902034511 73 345 0.0 0.0 0.01 0.64 0.64 95 1016.7
20260902033029 73 345 0.0 2.0 0.01 0.64 0.64 95 1016.6
20260902031540 73 345 0.0 2.0 0.01 0.64 0.64 95 1016.8
20260902030027 73 345 0.0 0.0 0.01 0.64 0.64 95 1016.1
20260902024527 73 345 0.0 0.0 0.00 0.63 0.63 95 1015.7
20260902023023 73 345 0.0 2.0 0.00 0.63 0.63 95 1016.0
20260902021525 73 345 0.0 2.0 0.00 0.63 0.63 94 1016.4
20260902020016 73 279 0.0 0.0 0.01 0.63 0.63 94 1016.0
20260902014531 73 279 0.0 2.0 0.36 0.63 0.63 94 1015.8
20260902013029 74 3 0.0 1.0 0.63 0.63 0.63 93 1015.1
20260902011531 73 91 0.0 2.0 0.63 0.63 0.63 92 1014.4
20260902010030 74 168 1.0 5.0 0.62 0.62 0.62 90 1014.7
20260902004504 77 288 1.0 15.0 0.25 0.25 0.25 85 1015.0
20260902003006 82 307 0.0 2.0 0.00 0.00 0.00 87 1013.9
20260902001503 82 307 0.0 0.0 0.00 0.00 0.00 84 1013.5
20260902000004 83 307 0.0 0.0 0.00 0.00 0.00 83 1013.7
20260901234509 83 307 0.0 0.0 0.00 0.00 0.00 81 1013.1
20260901233003 84 307 0.0 0.0 0.00 0.00 0.00 80 1013.1
20260901231504 84 307 0.0 0.0 0.00 0.00 0.00 80 1013.5
20260901230011 85 307 0.0 0.0 0.00 0.00 0.00 78 1013.4
20260901224504 87 307 0.0 0.0 0.00 0.00 0.00 75 1013.4
20260901223005 87 222 0.0 2.0 0.00 0.00 0.00 74 1013.6
20260901221512 87 321 0.0 2.0 0.00 0.00 0.00 73 1013.5
20260901220007 87 238 0.0 2.0 0.00 0.00 0.00 73 1013.4
20260901214504 88 237 0.0 3.0 0.00 0.00 0.00 71 1013.7
20260901213004 88 195 0.0 3.0 0.00 0.00 0.00 70 1013.7
20260901211504 88 228 1.0 3.0 0.00 0.00 0.00 70 1013.7
20260901210012 89 241 0.0 4.0 0.00 0.00 0.00 70 1013.8
20260901204503 88 186 0.0 3.0 0.00 0.00 0.00 71 1013.9
20260901203007 88 78 1.0 6.0 0.00 0.00 0.00 68 1014.0
20260901201521 88 130 1.0 4.0 0.00 0.00 0.00 1014.1
20260901200008 88 312 0.0 4.0 0.00 0.00 0.00 67 1014.1
20260901194508 88 165 0.0 4.0 0.00 0.00 0.00 69 1014.1
20260901193006 88 225 0.0 2.0 0.00 0.00 0.00 68 1014.3
20260901191512 88 321 1.0 5.0 0.00 0.00 0.00 67 1014.4
20260901190011 88 2 0.0 4.0 0.00 0.00 0.00 67 1014.5
20260901184509 87 311 1.0 4.0 0.00 0.00 0.00 68 1014.6
20260901183010 87 125 0.0 3.0 0.00 0.00 0.00 71 1014.7
20260901181511 86 144 0.0 2.0 0.00 0.00 0.00 71 1014.8
20260901180012 86 349 0.0 3.0 0.00 0.00 0.00 73 1014.6
20260901174514 85 168 0.0 2.0 0.00 0.00 0.00 75 1015.1
20260901173014 84 148 0.0 2.0 0.00 0.00 0.00 79 1015.2
20260901171512 83 245 0.0 2.0 0.00 0.00 0.00 81 1015.4
20260901170016 81 267 0.0 0.0 0.00 0.00 0.00 85 1015.5
20260901164512 80 267 0.0 0.0 0.00 0.00 0.00 88 1015.8
20260901163016 80 267 0.0 0.0 0.00 0.00 0.00 87 1016.1
20260901161532 80 267 0.0 0.0 0.00 0.00 0.00 86 1016.2
20260901160033 81 267 0.0 2.0 0.00 0.00 0.00 81 1015.9
20260901154503 81 267 0.0 2.0 0.00 0.00 0.00 85 1016.0
20260901153004 80 224 0.0 0.0 0.00 0.00 0.00 83 1015.9
20260901151520 81 314 0.0 4.0 0.00 0.00 0.00 83 1016.2
20260901150016 80 245 0.0 3.0 0.00 0.00 0.00 84 1016.3
20260901144515 80 124 0.0 4.0 0.00 0.00 0.00 84 1016.5
20260901143012 79 207 0.0 3.0 0.00 0.00 0.00 87 1016.4
20260901141508 78 154 1.0 4.0 0.00 0.00 0.00 87 1016.3
20260901140007 77 265 0.0 2.0 0.00 0.00 0.00 91 1016.2
20260901134504 77 265 0.0 2.0 0.00 0.00 0.00 91 1016.0
20260901133004 77 265 0.0 2.0 0.00 0.00 0.00 91 1016.1
20260901131524 77 265 0.0 2.0 0.00 0.00 0.00 91 1016.4
20260901130023 76 201 0.0 5.0 0.00 0.00 0.00 93 1016.5
20260901124522 75 283 0.0 3.0 0.00 0.00 0.00 95 1016.5
20260901123016 74 243 0.0 2.0 0.00 0.00 0.00 96 1016.6
20260901121515 73 236 0.0 2.0 0.00 0.00 0.00 96 1016.4
20260901120007 72 237 0.0 3.0 0.00 0.00 0.00 96 1016.6
20260901114506 72 213 0.0 0.0 0.00 0.00 0.00 96 1016.8